TimeCST,TemperatureF,Dew PointF,Humidity,Sea Level PressureIn,VisibilityMPH,Wind Direction,Wind SpeedMPH,Gust SpeedMPH,PrecipitationIn,Events,Conditions,WindDirDegrees,DateUTC
12:52 AM,39.0,19.9,46,29.73,10.0,South,13.8,-,N/A,,Clear,170,2014-01-12 06:52:00
1:52 AM,39.9,19.9,45,29.67,10.0,South,15.0,-,N/A,,Clear,190,2014-01-12 07:52:00
2:52 AM,37.9,19.9,48,29.65,10.0,SSW,11.5,-,N/A,,Clear,200,2014-01-12 08:52:00
3:52 AM,37.9,21.0,51,29.64,10.0,SSW,11.5,-,N/A,,Clear,210,2014-01-12 09:52:00
4:52 AM,37.0,21.0,52,29.60,10.0,SSW,11.5,-,N/A,,Clear,210,2014-01-12 10:52:00
5:52 AM,37.0,21.0,52,29.60,10.0,SSW,13.8,-,N/A,,Clear,210,2014-01-12 11:52:00
6:52 AM,37.0,21.0,52,29.60,10.0,SW,15.0,-,N/A,,Clear,220,2014-01-12 12:52:00
7:52 AM,36.0,21.0,55,29.59,10.0,SW,11.5,-,N/A,,Clear,220,2014-01-12 13:52:00
8:52 AM,37.0,21.9,54,29.59,10.0,SW,12.7,-,N/A,,Clear,230,2014-01-12 14:52:00
9:52 AM,43.0,23.0,45,29.57,10.0,SW,10.4,-,N/A,,Clear,220,2014-01-12 15:52:00
10:52 AM,54.0,24.1,31,29.56,10.0,WSW,8.1,-,N/A,,Clear,240,2014-01-12 16:52:00
11:52 AM,57.0,25.0,29,29.51,10.0,West,19.6,25.3,N/A,,Clear,260,2014-01-12 17:52:00
12:52 PM,55.9,24.1,29,29.49,10.0,West,16.1,-,N/A,,Clear,270,2014-01-12 18:52:00
1:52 PM,55.0,25.0,31,29.49,10.0,West,15.0,-,N/A,,Clear,260,2014-01-12 19:52:00
2:52 PM,54.0,25.0,33,29.52,10.0,WNW,17.3,-,N/A,,Clear,290,2014-01-12 20:52:00
3:52 PM,51.1,26.1,38,29.57,10.0,NNW,11.5,-,N/A,,Clear,330,2014-01-12 21:52:00
4:52 PM,50.0,26.1,39,29.61,10.0,NNW,12.7,-,N/A,,Clear,340,2014-01-12 22:52:00
5:52 PM,50.0,25.0,38,29.69,10.0,NW,16.1,-,N/A,,Mostly Cloudy,320,2014-01-12 23:52:00
6:52 PM,50.0,21.9,33,29.74,10.0,NNW,18.4,32.2,N/A,,Overcast,340,2014-01-13 00:52:00
7:52 PM,44.1,27.0,51,29.79,10.0,NNW,21.9,33.4,N/A,,Mostly Cloudy,340,2014-01-13 01:52:00
8:52 PM,41.0,26.1,55,29.81,10.0,NNW,10.4,-,N/A,,Partly Cloudy,340,2014-01-13 02:52:00
9:52 PM,36.0,25.0,64,29.84,10.0,WNW,11.5,-,N/A,,Partly Cloudy,300,2014-01-13 03:52:00
10:52 PM,39.9,18.0,41,29.83,10.0,NW,21.9,-,N/A,,Clear,310,2014-01-13 04:52:00
11:52 PM,37.9,14.0,38,29.85,10.0,WNW,20.7,-,N/A,,Clear,300,2014-01-13 05:52:00